Location: Peterborough
(44.3091°N, 78.3197°W)
Time: 17:50:12
(UTC-04:00)

Explorer 7 - Pass Details

Date: 31 March 2023
Orbit: 477 x 653 km, 50.3° (Epoch: 04 June)

Event Time Altitude Azimuth Distance (km) Brightness Sun altitude
Rises 16:26:24 0° 249° (WSW) 2,950 11.6 32.5°
Reaches altitude 10° 16:28:47 10° 251° (WSW) 2,024 11.2 32.1°
Maximum altitude 16:33:27 71° 336° (NNW) 657 7.7 31.4°
Drops below altitude 10° 16:37:52 10° 61° (ENE) 1,928 9.2 30.7°
Sets 16:40:07 0° 63° (ENE) 2,804 9.9 30.3°
